Location: Newark
(30.0333°N, 31.2167°E)
Time: 23:00:29
(UTC+00:00)

Tiros 1 - Pass Details

Date: 28 January 2020
Orbit: 631 x 664 km, 48.4° (Epoch: 27 February)

Event Time Altitude Azimuth Distance (km) Brightness Sun altitude
Rises 08:51:37 0° 240° (WSW) 2,909 10.6 38.3°
Reaches altitude 10° 08:53:59 10° 246° (WSW) 2,007 9.8 38.5°
Maximum altitude 08:58:28 51° 322° (NW) 802 7.7 38.9°
Drops below altitude 10° 09:03:02 10° 39° (NE) 2,032 9.6 39.2°
Sets 09:05:26 0° 44° (NE) 2,950 10.3 39.4°
